Eastsound, WA
on Sunday, December 23, 2012

Sunday
Previous Day Next Day
Daily Summary
 ActualAverage (KBLI)Record (KBLI)
Temperature
Mean Temperature °F 38°F  
Max Temperature 44°F 44°F 59°F (1950)
Min Temperature 39°F 32°F 8°F (1990)
Degree Days
Heating Degree Days 24 27  
Month to date heating degree days 611  
Cooling Degree Days 0 0  
Month to date cooling degree days 0  
Year to date cooling degree days 42  
Moisture
Dew Point 36°F   
Average Humidity 79    
Maximum Humidity 100    
Minimum Humidity 66    
Precipitation
Precipitation 0.00 in 0.12 in 1.26 in (1949)
Month to date precipitation 3.25  
Year to date precipitation 34.86  
Wind
Wind Speed 8 mph   
Max Wind Speed 18 mph   
Max Gust Speed 28 mph   
Visibility 10 miles   
Events Rain   

Key: T is trace of precipitation, MM is missing value
Source: NWS Daily Summary
Time(PST)TemperatureDew PointHumidity Pressure Visibility Wind DirectionWind SpeedGust SpeedPrecipitationEvents Conditions
12:15 AM 44.6°F 37.4°F 76% 29.65 in 10.0 miles South 11.5 mph 23.0 mph N/A   Mostly Cloudy
12:35 AM 44.6°F 37.4°F 76% 29.65 in 10.0 miles South 11.5 mph 19.6 mph N/A   Mostly Cloudy
12:55 AM 44.6°F 37.4°F 76% 29.66 in 10.0 miles South 12.7 mph 23.0 mph N/A   Mostly Cloudy
1:15 AM 44.6°F 37.4°F 76% 29.66 in 10.0 miles South 18.4 mph 27.6 mph N/A   Mostly Cloudy
1:35 AM 44.6°F 37.4°F 76% 29.67 in 10.0 miles South 10.4 mph 25.3 mph N/A   Overcast
1:55 AM 44.6°F 37.4°F 76% 29.67 in 10.0 miles South 6.9 mph 18.4 mph N/A   Overcast
2:15 AM 42.8°F 37.4°F 81% 29.68 in 10.0 miles South 9.2 mph 19.6 mph N/A   Mostly Cloudy
2:35 AM 42.8°F 37.4°F 81% 29.68 in 10.0 miles South 10.4 mph 17.3 mph N/A   Mostly Cloudy
3:15 AM 44.6°F 37.4°F 76% 29.68 in 10.0 miles SSE 8.1 mph 18.4 mph N/A   Mostly Cloudy
3:35 AM 44.6°F 37.4°F 76% 29.68 in 10.0 miles SSE 8.1 mph 17.3 mph N/A   Mostly Cloudy
3:55 AM 44.6°F 35.6°F 71% 29.67 in 10.0 miles South 10.4 mph 18.4 mph N/A   Mostly Cloudy
4:15 AM 44.6°F 35.6°F 71% 29.67 in 10.0 miles South 11.5 mph 21.9 mph N/A   Overcast
5:15 AM 44.6°F 37.4°F 76% 29.67 in 10.0 miles South 10.4 mph 18.4 mph N/A   Mostly Cloudy
5:35 AM 44.6°F 35.6°F 71% 29.67 in 10.0 miles South 11.5 mph 23.0 mph N/A   Partly Cloudy
5:55 AM 44.6°F 35.6°F 71% 29.67 in 10.0 miles South 8.1 mph 18.4 mph N/A   Scattered Clouds
6:15 AM 44.6°F 35.6°F 71% 29.67 in 10.0 miles South 9.2 mph 21.9 mph N/A   Scattered Clouds
6:35 AM 44.6°F 35.6°F 71% 29.67 in 10.0 miles South 11.5 mph 24.2 mph N/A   Mostly Cloudy
7:15 AM 44.6°F 35.6°F 71% 29.67 in 10.0 miles SSE 9.2 mph 16.1 mph N/A   Overcast
7:35 AM 44.6°F 35.6°F 71% 29.67 in 10.0 miles SSE 5.8 mph - N/A   Mostly Cloudy
7:55 AM 44.6°F 35.6°F 71% 29.67 in 10.0 miles South 5.8 mph - N/A   Overcast
8:15 AM 44.6°F 35.6°F 71% 29.68 in 10.0 miles SSE 8.1 mph - N/A   Overcast
8:35 AM 44.6°F 35.6°F 71% 29.68 in 10.0 miles South 8.1 mph - N/A   Overcast
8:55 AM 44.6°F 35.6°F 71% 29.68 in 10.0 miles SSE 6.9 mph - N/A   Mostly Cloudy
9:15 AM 44.6°F 35.6°F 71% 29.69 in 10.0 miles SSE 11.5 mph 19.6 mph N/A   Mostly Cloudy
9:35 AM 44.6°F 35.6°F 71% 29.68 in 10.0 miles SSE 10.4 mph 23.0 mph N/A   Mostly Cloudy
9:55 AM 44.6°F 35.6°F 71% 29.68 in 10.0 miles SE 10.4 mph 18.4 mph N/A   Mostly Cloudy
10:15 AM 44.6°F 35.6°F 71% 29.68 in 10.0 miles SSE 9.2 mph 21.9 mph N/A   Scattered Clouds
10:35 AM 44.6°F 35.6°F 71% 29.67 in 10.0 miles South 8.1 mph - N/A   Clear
11:15 AM 44.6°F 35.6°F 71% 29.66 in 10.0 miles SSE 3.5 mph - N/A   Clear
11:35 AM 44.6°F 35.6°F 71% 29.66 in 10.0 miles SSE 8.1 mph 16.1 mph N/A   Clear
11:55 AM 44.6°F 33.8°F 66% 29.65 in 10.0 miles ESE 6.9 mph - N/A Rain Light Rain
12:15 PM 44.6°F 35.6°F 71% 29.64 in 10.0 miles ESE 4.6 mph - N/A Rain Light Rain
12:35 PM 44.6°F 37.4°F 76% 29.64 in 10.0 miles SE 3.5 mph - N/A   Clear
12:55 PM 44.6°F 35.6°F 71% 29.63 in 10.0 miles ENE 9.2 mph - N/A   Clear
1:15 PM 42.8°F 37.4°F 81% 29.63 in 10.0 miles Calm Calm - N/A   Clear
1:35 PM 42.8°F 35.6°F 76% 29.63 in 10.0 miles East 3.5 mph - N/A   Clear
1:55 PM 42.8°F 37.4°F 81% 29.63 in 10.0 miles ENE 5.8 mph - N/A   Clear
2:35 PM 42.8°F 35.6°F 76% 29.62 in 10.0 miles ESE 4.6 mph - N/A   Clear
2:55 PM 41.0°F 35.6°F 81% 29.63 in 10.0 miles Calm Calm - N/A   Clear
3:15 PM 42.8°F 33.8°F 70% 29.63 in 10.0 miles ENE 4.6 mph - N/A   Partly Cloudy
3:35 PM 41.0°F 33.8°F 76% 29.63 in 10.0 miles Calm Calm - N/A   Partly Cloudy
3:55 PM 41.0°F 33.8°F 76% 29.63 in 10.0 miles NE 3.5 mph - N/A   Scattered Clouds
4:15 PM 41.0°F 33.8°F 76% 29.63 in 10.0 miles ENE 6.9 mph - N/A   Scattered Clouds
4:35 PM 42.8°F 35.6°F 76% 29.64 in 10.0 miles East 5.8 mph - N/A   Mostly Cloudy
4:55 PM 42.8°F 35.6°F 76% 29.64 in 10.0 miles Calm Calm - N/A   Mostly Cloudy
5:15 PM 42.8°F 35.6°F 76% 29.65 in 10.0 miles East 4.6 mph - N/A   Clear
5:35 PM 41.0°F 35.6°F 81% 29.66 in 10.0 miles East 3.5 mph - N/A   Scattered Clouds
5:55 PM 41.0°F 37.4°F 87% 29.66 in 10.0 miles Calm Calm - N/A Rain Light Rain
6:15 PM 41.0°F 37.4°F 87% 29.67 in 10.0 miles Calm Calm - N/A   Clear
6:35 PM 41.0°F 37.4°F 87% 29.67 in 10.0 miles North - - N/A Rain Light Rain
6:55 PM 41.0°F 37.4°F 87% 29.68 in 10.0 miles Calm Calm - N/A   Mostly Cloudy
7:15 PM 41.0°F 37.4°F 87% 29.69 in 10.0 miles Calm Calm - N/A   Overcast
7:35 PM 41.0°F 37.4°F 87% 29.69 in 9.0 miles Calm Calm - N/A Rain Light Rain
7:55 PM 39.2°F 37.4°F 93% 29.70 in 8.0 miles North - - N/A Rain Light Rain
8:15 PM 39.2°F 37.4°F 93% 29.70 in 8.0 miles East 3.5 mph - N/A Rain Light Rain
8:35 PM 39.2°F 39.2°F 100% 29.71 in 10.0 miles Calm Calm - N/A   Mostly Cloudy
8:55 PM 39.2°F 39.2°F 100% 29.72 in 10.0 miles Calm Calm - N/A   Overcast
9:15 PM 39.2°F 37.4°F 93% 29.72 in 6.0 miles Calm Calm - N/A Rain Light Rain
9:35 PM 39.2°F 39.2°F 100% 29.73 in 5.0 miles Calm Calm - N/A Rain Light Rain
9:55 PM 39.2°F 39.2°F 100% 29.74 in 7.0 miles Calm Calm - N/A Rain Light Rain
10:15 PM 39.2°F 37.4°F 93% 29.75 in 10.0 miles Calm Calm - N/A   Mostly Cloudy
10:35 PM 39.2°F 37.4°F 93% 29.76 in 10.0 miles Calm Calm - N/A   Overcast
10:55 PM 39.2°F 37.4°F 93% 29.77 in 10.0 miles Calm Calm - N/A   Overcast
11:15 PM 39.2°F 35.6°F 87% 29.78 in 10.0 miles Calm Calm - N/A   Overcast
11:35 PM 39.2°F 35.6°F 87% 29.79 in 10.0 miles Calm Calm - N/A   Overcast
Moon Phase
Dec. 23 Dec. 28 Jan. 04 Jan. 11 Jan. 18
Sunrise:08:02 AM (PST) Moon Rise:01:22 PM (PST)
Sunset:04:19 PM (PST) Moon Set:03:40 AM (PST)

Copyright © 2014 The Weather Underground, Inc.